Regional Weather Roundup
Issued by NWS

Home | Current Version | Previous Version | Graphics & Text | Print | Product List | Glossary On
Versions: 1 2 3 4 5 6 7 8 9 10 11 12 13 14 15 16 17 18 19 20 21 22 23 24 25 26 27 28 29 30 31 32 33 34 35 36 37 38 39 40 41 42 43 44 45 46 47 48 49 50
000
ASUS43 KLOT 191005
RWRIL

ILLINOIS REGIONAL WEATHER ROUNDUP
NATIONAL WEATHER SERVICE CHICAGO/ROMEOVILLE IL
500 AM CDT THU OCT 19 2017

NOTE: "FAIR" INDICATES FEW OR NO CLOUDS BELOW 12,000 FEET WITH NO
SIGNIFICANT WEATHER AND/OR OBSTRUCTIONS TO VISIBILITY.

* THESE STATIONS ARE NOT UNDER NWS QUALITY CONTROL. THEY ALSO MAY NOT
  REPORT WEATHER SUCH AS PRECIPITATION OR FOG.

ILZ001-002-007-009-015-016-024-191100-
NORTHWEST ILLINOIS

CITY           SKY/WX    TMP DP  RH WIND       PRES   REMARKS
MOLINE         CLEAR     49  43  80 CALM      30.08R
STERLING*      CLOUDY    46  45  96 CALM        N/A
SAVANNA*       CLOUDY    44  42  95 CALM      30.08R
$$

ILZ003-004-008-010-011-017-018-191100-
NORTH CENTRAL ILLINOIS

CITY           SKY/WX    TMP DP  RH WIND       PRES   REMARKS
ROCKFORD       CLOUDY    50  44  80 CALM      30.10R
FREEPORT*      PTCLDY    44  41  91 CALM      30.10R
ROCHELLE*      CLOUDY    43  42  96 CALM      30.09R
DE KALB*       CLOUDY    52  46  78 W7        30.08R
PERU*          CLEAR     51  46  80 W9        30.09R
$$

ILZ005-006-012>014-019>023-191100-
NORTHEAST ILLINOIS

CITY           SKY/WX    TMP DP  RH WIND       PRES   REMARKS
CHICAGO-OHARE  PTCLDY    54  46  74 W7        30.06R
CHICAGO-MIDWAY PTCLDY    55  48  77 VRB6      30.07R
AURORA         CLOUDY    48  46  93 W3        30.08R
LANSING*       CLEAR     51  48  89 SW7       30.08R
JOLIET*        CLEAR     53  49  86 CALM      30.08R
WAUKEGAN       MOCLDY    54  45  71 W3        30.05R
DUPAGE AIRPORT PTCLDY    51  47  86 W5        30.06R
KANKAKEE*      CLEAR     51  46  81 SW3       30.09S
WHEELING       CLOUDY    56  47  71 W5        30.08R
MORRIS*        CLEAR     52  46  82 W6        30.06R
NORTHERLY ISL    N/A     57  46  66 W7          N/A
$$

LMZ740>746-191100-
SOUTHERN LAKE MICHIGAN

STATION/POSITION SKY/WX   TEMP    WIND        PRES    VSBY  WAVE
                          AIR SEA DIR/SP/G                  HT/PER
                          (F)     (DEG/KT/KT) (MB)    (MI)  (FT/S)
SOUTHERN BUOY              61 61  280/ 17/ 21 1016.1          4/ 6
WILMETTE HARBOR            57 57  250/ 12/ 16   N/A           2/ 3
HARRISON CRIB              60     260/ 18/ 21   N/A
BURNHAM HARBOR             57     260/  5/ 10   N/A
CALUMET HARBOR             56     210/  6/ 10 1017.0
BURNS HARBOR               58     210/ 14/ 22 1018.3S
MICHIGAN CITY              55     180/ 10/ 10   N/A
MICHIGAN CITY 6N           57 57  220/ 12/ 14   N/A           2/ 3
ST. JOSEPH                 57 58  230/ 14/ 17 1018.0R         3/ 4
$$

ILZ025>027-034>036-040-047-049-050-058-095>099-191100-
WEST-CENTRAL ILLINOIS

CITY           SKY/WX    TMP DP  RH WIND       PRES   REMARKS
QUINCY         CLEAR     51  45  79 S8        30.09R
GALESBURG*     CLEAR     45  43  92 CALM      30.09R
MACOMB*        CLEAR     50  45  82 SW5       30.10R
JACKSONVILLE*  CLEAR     55  47  76 S8        30.10S
PITTSFIELD*    CLEAR     53  47  82 S5        30.11S
$$

ILZ028>032-037-038-041>044-048-051>054-059>061-191100-
CENTRAL ILLINOIS

CITY           SKY/WX    TMP DP  RH WIND       PRES   REMARKS
PONTIAC        CLEAR     55  50  85 SW7       30.10R
BLOOMINGTON    CLEAR     52  47  83 SW8       30.11S
DECATUR        CLEAR     53  47  79 SW10      30.13R
PEORIA         CLEAR     51  47  86 SW5       30.09R
LACON*         CLEAR     53  48  84 S3        30.08R
LINCOLN*       CLEAR     53  49  85 SW5       30.10S
SPRINGFIELD    CLEAR     55  49  80 SW6       30.11S
TAYLORVILLE    CLEAR     50  47  89 S5        30.13R
$$

ILZ033-039-045-046-055>057-062-063-191100-
EAST-CENTRAL ILLINOIS

CITY           SKY/WX    TMP DP  RH WIND       PRES   REMARKS
CHAMPAIGN      CLEAR     51  46  83 S8        30.13R
DANVILLE*      CLEAR     52  46  82 SW8       30.11R
RANTOUL*       CLEAR     52  48  87 SW5       30.12R
MATTOON        CLEAR     53  49  86 S9        30.13R
PARIS*         CLEAR     53  48  83 S7        30.15R
$$

ILZ079-100>102-191100-
SOUTHWEST ILLINOIS

CITY           SKY/WX    TMP DP  RH WIND       PRES   REMARKS
ALTON          CLEAR     55  50  84 CALM      30.15R
BELLEVILLE     CLEAR     50  46  88 SE5       30.18R
CAHOKIA*       CLEAR     48  44  86 CALM      30.15R
SPARTA*        CLEAR     55  47  73 S8        30.17S
$$

ILZ064>066-069>071-074>076-080>082-084>086-088>090-092>094-191100-
SOUTH-CENTRAL ILLINOIS

CITY           SKY/WX    TMP DP  RH WIND       PRES   REMARKS
CARBONDALE     CLEAR     47  46  97 S3        30.18R
CAIRO*         CLEAR     53  47  82 CALM      30.21R
EFFINGHAM*     CLEAR     52  48  87 SE3       30.17R
MARION         CLEAR     52  49  89 S6        30.20R
MT. VERNON     FOG       45  45 100 CALM      30.18R VSB 1
CENTRALIA*     CLEAR     53  49  85 S8        30.16S
SALEM*         CLEAR     53  47  79 S7        30.16S
METROPOLIS*    CLEAR     48  46  91 CALM      30.22R
$$

ILZ067-068-072-073-078-083-087-091-191100-
SOUTHEAST ILLINOIS

CITY           SKY/WX    TMP DP  RH WIND       PRES   REMARKS
LAWRENCEVILLE  CLEAR     48  45  89 S6        30.19R
FLORA*         CLEAR     48  46  91 S6        30.18S
FAIRFIELD*     CLEAR     50  47  88 S3        30.17S
HARRISBURG*    CLEAR     48  46  92 CALM      30.21R
ROBINSON*      CLEAR     46  44  95 S5        30.18S
CARMI*         CLEAR     45  45  99 S3        30.20R
$$

ABBREVIATIONS USED IN REMARKS
   TC - TEMPERATURE IN CELSIUS
  WCI - WIND CHILL INDEX
   HX - HEAT INDEX
  VSB - VISIBILITY
$$




USA.gov is the U.S. government's official web portal to all federal, state and local government web resources and services.